Location: Alfortville
(48.8058°N, 2.4204°E)
Time: 02:27:18
(UTC+00:00)

CAS-4B - Visible Passes

Search period start: 26 March 2023 00:00
Search period end: 05 April 2023 00:00
Orbit: 510 x 527 km, 43.0° (Epoch: 25 March)

Date Brightness Start Highest point End Pass type
(mag) Time Alt. Az. Time Alt. Az. Time Alt. Az.
27 Mar ? 04:58:39 10° SSW 05:01:09 16° SSE 05:03:39 10° ESE visible
28 Mar ? 04:42:09 10° SSW 04:44:51 18° SSE 04:47:34 10° ESE visible
29 Mar ? 04:25:38 10° SSW 04:28:31 19° SSE 04:31:25 10° ESE visible
30 Mar ? 04:09:51 13° SSW 04:12:09 21° SSE 04:15:11 10° ESE visible
31 Mar ? 03:54:14 18° S 03:55:45 22° SSE 03:58:55 10° ESE visible
01 Apr ? 03:38:32 22° S 03:39:20 24° SSE 03:42:35 10° ESE visible
02 Apr ? 03:22:46 25° SSE 03:22:52 25° SSE 03:26:12 10° ESE visible
03 Apr ? 03:06:57 26° SSE 03:06:57 26° SSE 03:09:46 10° ESE visible
03 Apr ? 04:41:54 10° WSW 04:45:35 36° S 04:49:17 10° ESE visible
04 Apr ? 02:51:06 24° SE 02:51:06 24° SE 02:53:18 10° ESE visible
04 Apr ? 04:26:02 14° WSW 04:29:04 35° S 04:32:44 10° ESE visible
